LOWLLOWI

Guest
Details From LOWL - Linz Hoersching
To LOWI - Innsbruck Kranebitten
Flight Number -
Tags decoded
Created
Modified
Stats Distance 136 nm / 252 km
Max Altitude 0 ft / 0 m
Waypoints 5
Social Downloads 0
Likes 0
Share VATSIM

Download

Looking for another format? Having issues loading an existing format? Contact us
Advertisement - Login to hide

Notes

Requested: LOWL OGRUB NANIT RTT LOWI

Route

LOWL OGRUB NANIT RTT LOWI

ID Type Via Altitude Latitude Longitude Leg Dist Tot Dist Heading (true) Name
O LOWL APT - 0 ft / 0 m 48.23322˚ 14.18751˚ - 0 nm - Linz Hoersching
OGRUB FIX - 0 ft / 0 m 47.91581˚ 13.93003˚ 21 nm 21 nm 209° / 208° -
NANIT FIX - 0 ft / 0 m 47.39302˚ 12.34644˚ 71 nm 93 nm 244° / 243° -
RTT NDB - 0 ft / 0 m 47.43092˚ 11.94005˚ 16 nm 109 nm 278° / 278° RATTENBERG NDB
O LOWI APT - 0 ft / 0 m 47.26023˚ 11.34397˚ 26 nm 136 nm 247° / 247° Innsbruck Kranebitten

Altitude Profile

Advertisement - Login to hide

LOWL

Details ICAO LOWL (LNZ)
Name Linz Hoersching
Region Austria
Timezone Europe/Vienna (UTC+2.0)
Stats Elevation 978 ft / 298 m (AMSL)
Location 48.233219° 14.187513°
Runways 1
Magnetic Variation 3.778° E

METAR

LOWL 202320Z AUTO 08009KT 9999 NSC 13/07 Q1019

Decode

TAF

TAF LOWL 201715Z 2018/2118 09010KT CAVOK TX24/2113Z TN14/2104Z TEMPO 2107/2116 10017KT

Decode

Departure Runways

ID Width Length Bearing (true) Bearing (mag) Surface Threshold Offset Overrun Length
09 197 ft / 60 m 9,802 ft / 2,988 m 86.49° 82.71° Asphalt 820 ft / 250 m 0 ft / 0 m
27 197 ft / 60 m 9,802 ft / 2,988 m 266.52° 262.74° Asphalt 492 ft / 150 m 0 ft / 0 m

LOWI

Details ICAO LOWI (INN)
Name Innsbruck Kranebitten
Region Austria
Timezone Europe/Vienna (UTC+2.0)
Stats Elevation 1,906 ft / 581 m (AMSL)
Location 47.260226° 11.343967°
Runways 1
Magnetic Variation 3.070° E

METAR

LOWI 202320Z AUTO 32003KT 250V340 9999 NSC 12/09 Q1018

Decode

TAF

TAF LOWI 201715Z 2018/2118 09005KT 9999 FEW040 SCT070 BKN100 TX24/2112Z TN10/2104Z TEMPO 2018/2021 VRB12G25KT SHRA SCT040 FEW060TCU BKN070 BECMG 2021/2023 VRB02KT SCT050 SCT100 BECMG 2108/2110 09009KT SCT070 TEMPO 2114/2118 VRB12G25KT SHRA SCT060TCU BKN070

Decode

Destination Runways

ID Width Length Bearing (true) Bearing (mag) Surface Threshold Offset Overrun Length
08 148 ft / 45 m 6,545 ft / 1,995 m 81.02° 77.95° Asphalt 338 ft / 103 m 0 ft / 0 m
26 148 ft / 45 m 6,545 ft / 1,995 m 261.04° 257.97° Asphalt 0 ft / 0 m 0 ft / 0 m

Approach Navaids

Runway Type Ident Frequency Range Bearing (true) Bearing (mag) Slope Elevation
26 Localiser OEV 111.10 MHz 27 nm / 50 km 256.00° 252.93° - 1,906 ft / 581 m (AMSL)
26 Localiser OEJ 109.70 MHz 30 nm / 56 km 69.00° 65.93° - 1,906 ft / 581 m (AMSL)
26 Glidescope OEV 111.10 MHz 18 nm / 33 km 256.00° 252.93° 3.80° 1,911 ft / 582 m (AMSL)
26 DME OEJ 109.70 MHz 30 nm / 56 km - - - 1,906 ft / 581 m (AMSL)
26 DME OEV 111.10 MHz 27 nm / 50 km - - - 1,911 ft / 582 m (AMSL)

Popular Alternatives